CSN6710 ZSAM-ZJHK

Flight info

Callsign CSN6710
Flight time 1h 42m
Altitude 32100
Route NUSPA9Z NUSPA W597 IKATA A470 BEBEM R200 BIGRO G221 GIVIV W605 DOMGO DOMGO6XA
Aircraft A320/M-SDE3FGHIRWY/LB1

Departure

Time 2026-04-24 12:51
Airport Xiamen Gaoqi International Airport (ZSAM)

Arrival

Time 2026-04-24 14:34
Airport Haikou Meilan International Airport (ZJHK)
Time Latitude Longitude Altitude Speed Heading
2026-04-24 12:03 24.53781 118.12575 58 ft 0 kts 143°
2026-04-24 12:40 24.53785 118.12572 52 ft 4 kts 145°
2026-04-24 12:41 24.53809 118.12556 50 ft 4 kts 146°
2026-04-24 12:41 24.53826 118.12541 50 ft 4 kts 130°
2026-04-24 12:41 24.53836 118.12517 54 ft 4 kts 84°
2026-04-24 12:41 24.53828 118.12491 50 ft 4 kts 53°
2026-04-24 12:42 24.53824 118.12485 50 ft 0 kts 52°
2026-04-24 12:45 24.53826 118.12488 50 ft 2 kts 52°
2026-04-24 12:45 24.53838 118.12505 50 ft 4 kts 52°
2026-04-24 12:46 24.53860 118.12536 55 ft 6 kts 52°
2026-04-24 12:46 24.53899 118.12570 58 ft 8 kts 12°
2026-04-24 12:46 24.53954 118.12542 49 ft 10 kts 321°
2026-04-24 12:46 24.53996 118.12485 59 ft 10 kts 267°
2026-04-24 12:47 24.53959 118.12418 54 ft 11 kts 229°
2026-04-24 12:47 24.53909 118.12354 56 ft 12 kts 231°
2026-04-24 12:47 24.53857 118.12282 57 ft 12 kts 232°
2026-04-24 12:47 24.53803 118.12204 56 ft 13 kts 233°
2026-04-24 12:48 24.53746 118.12121 59 ft 14 kts 233°
2026-04-24 12:48 24.53684 118.12036 59 ft 15 kts 231°
2026-04-24 12:48 24.53619 118.11947 57 ft 15 kts 231°
2026-04-24 12:48 24.53553 118.11853 60 ft 16 kts 232°
2026-04-24 12:49 24.53483 118.11756 61 ft 16 kts 232°
2026-04-24 12:49 24.53480 118.11662 61 ft 14 kts 329°
2026-04-24 12:49 24.53553 118.11606 57 ft 13 kts 345°
2026-04-24 12:49 24.53599 118.11630 61 ft 0 kts 51°
2026-04-24 12:50 24.53599 118.11631 61 ft 1 kts 51°
2026-04-24 12:50 24.53673 118.11732 57 ft 48 kts 52°
2026-04-24 12:50 24.54011 118.12209 57 ft 106 kts 52°
2026-04-24 12:50 24.54564 118.12980 48 ft 148 kts 52°
2026-04-24 12:51 24.55247 118.13938 288 ft 166 kts 52°
2026-04-24 12:51 24.55966 118.14930 868 ft 166 kts 52°
2026-04-24 12:51 24.56684 118.15933 1410 ft 171 kts 52°
2026-04-24 12:51 24.57387 118.16921 1634 ft 191 kts 53°
2026-04-24 12:52 24.58221 118.18090 2223 ft 195 kts 52°
2026-04-24 12:52 24.59065 118.19273 2832 ft 199 kts 52°
2026-04-24 12:52 24.59934 118.20491 3384 ft 205 kts 51°
2026-04-24 12:52 24.60830 118.21746 3920 ft 212 kts 50°
2026-04-24 12:53 24.61732 118.23065 4479 ft 219 kts 61°
2026-04-24 12:53 24.62208 118.24656 5065 ft 223 kts 86°
2026-04-24 12:53 24.62023 118.26348 5625 ft 226 kts 112°
2026-04-24 12:53 24.61198 118.27803 6185 ft 227 kts 140°
2026-04-24 12:54 24.59893 118.28731 6735 ft 223 kts 166°
2026-04-24 12:54 24.58389 118.28975 7314 ft 218 kts 190°
2026-04-24 12:54 24.56951 118.28531 7893 ft 215 kts 212°
2026-04-24 12:54 24.55812 118.27492 8477 ft 214 kts 233°
2026-04-24 12:55 24.54884 118.26196 9089 ft 217 kts 233°
2026-04-24 12:55 24.53940 118.24890 9693 ft 220 kts 233°
2026-04-24 12:55 24.52985 118.23576 10233 ft 224 kts 233°
2026-04-24 12:55 24.52008 118.22233 10808 ft 226 kts 233°
2026-04-24 12:56 24.51028 118.20883 11391 ft 229 kts 234°
2026-04-24 12:56 24.50002 118.19437 11584 ft 251 kts 235°
2026-04-24 12:56 24.48884 118.17848 11735 ft 274 kts 235°
2026-04-24 12:56 24.47667 118.16122 11877 ft 297 kts 234°
2026-04-24 12:57 24.46351 118.14263 12002 ft 319 kts 234°
2026-04-24 12:57 24.44949 118.12283 12125 ft 339 kts 234°
2026-04-24 12:57 24.43459 118.10179 12266 ft 357 kts 234°
2026-04-24 12:57 24.41909 118.07999 12712 ft 365 kts 234°
2026-04-24 12:58 24.40338 118.05796 13257 ft 369 kts 234°
2026-04-24 12:58 24.38746 118.03565 13742 ft 374 kts 235°
2026-04-24 12:58 24.37130 118.01302 14274 ft 376 kts 234°
2026-04-24 12:58 24.35519 117.99048 14896 ft 376 kts 234°
2026-04-24 12:59 24.33906 117.96786 15452 ft 377 kts 234°
2026-04-24 12:59 24.32289 117.94512 16018 ft 378 kts 234°
2026-04-24 12:59 24.30667 117.92231 16564 ft 381 kts 234°
2026-04-24 12:59 24.29587 117.90715 16938 ft 382 kts 234°
2026-04-24 13:00 24.27945 117.88411 17481 ft 384 kts 234°
2026-04-24 13:00 24.26297 117.86098 18018 ft 386 kts 234°
2026-04-24 13:00 24.24604 117.83800 18523 ft 389 kts 230°
2026-04-24 13:00 24.22687 117.81703 18980 ft 391 kts 227°
2026-04-24 13:01 24.20737 117.79614 19459 ft 392 kts 227°
2026-04-24 13:01 24.18783 117.77525 19928 ft 393 kts 227°
2026-04-24 13:01 24.16826 117.75429 20389 ft 394 kts 227°
2026-04-24 13:01 24.14866 117.73325 20791 ft 395 kts 227°
2026-04-24 13:02 24.12233 117.70491 21042 ft 405 kts 227°
2026-04-24 13:02 24.10871 117.69030 21248 ft 408 kts 227°
2026-04-24 13:02 24.08169 117.66136 21708 ft 411 kts 227°
2026-04-24 13:02 24.06778 117.64650 21942 ft 412 kts 227°
2026-04-24 13:03 24.04724 117.62455 22281 ft 414 kts 227°
2026-04-24 13:03 24.02683 117.60269 22614 ft 416 kts 227°
2026-04-24 13:03 24.00613 117.58050 22946 ft 418 kts 227°
2026-04-24 13:03 23.98532 117.55821 23262 ft 420 kts 227°
2026-04-24 13:04 23.96439 117.53581 23560 ft 422 kts 227°
2026-04-24 13:04 23.94342 117.51336 23807 ft 423 kts 227°
2026-04-24 13:04 23.92237 117.49080 24077 ft 424 kts 227°
2026-04-24 13:04 23.90120 117.46812 24329 ft 425 kts 227°
2026-04-24 13:05 23.88015 117.44560 24623 ft 424 kts 227°
2026-04-24 13:05 23.85964 117.42245 24946 ft 422 kts 232°
2026-04-24 13:05 23.84296 117.39635 25339 ft 418 kts 241°
2026-04-24 13:05 23.83088 117.36763 25733 ft 416 kts 251°
2026-04-24 13:06 23.82231 117.33756 26113 ft 414 kts 252°
2026-04-24 13:06 23.81389 117.30753 26517 ft 413 kts 252°
2026-04-24 13:06 23.80543 117.27760 26915 ft 411 kts 252°
2026-04-24 13:06 23.79694 117.24783 27324 ft 410 kts 251°
2026-04-24 13:07 23.78844 117.21821 27735 ft 409 kts 251°
2026-04-24 13:07 23.77996 117.18864 28121 ft 407 kts 251°
2026-04-24 13:07 23.77097 117.15942 28581 ft 404 kts 246°
2026-04-24 13:07 23.75800 117.13243 29167 ft 399 kts 237°
2026-04-24 13:08 23.74097 117.10866 29641 ft 398 kts 228°
2026-04-24 13:08 23.72184 117.08685 30080 ft 396 kts 227°
2026-04-24 13:08 23.70300 117.06543 30402 ft 396 kts 227°
2026-04-24 13:09 23.66491 117.02203 31123 ft 394 kts 229°
2026-04-24 13:09 23.64603 117.00055 31577 ft 390 kts 229°
2026-04-24 13:09 23.62734 116.97933 32010 ft 387 kts 230°
2026-04-24 13:09 23.60872 116.95822 32141 ft 385 kts 230°
2026-04-24 13:10 23.57096 116.91528 32171 ft 399 kts 230°
2026-04-24 13:10 23.53230 116.87127 32171 ft 403 kts 230°
2026-04-24 13:11 23.49337 116.82716 32173 ft 404 kts 229°
2026-04-24 13:11 23.45432 116.78293 32172 ft 407 kts 229°
2026-04-24 13:12 23.41112 116.74259 32176 ft 412 kts 221°
2026-04-24 13:12 23.36558 116.70478 32168 ft 412 kts 221°
2026-04-24 13:13 23.32007 116.66695 32161 ft 412 kts 221°
2026-04-24 13:13 23.27455 116.62910 32159 ft 412 kts 221°
2026-04-24 13:14 23.22899 116.59126 32135 ft 412 kts 221°
2026-04-24 13:14 23.18325 116.55333 32138 ft 414 kts 221°
2026-04-24 13:15 23.13759 116.51561 32142 ft 415 kts 221°
2026-04-24 13:15 23.09158 116.47758 32147 ft 416 kts 221°
2026-04-24 13:16 23.04553 116.43946 32144 ft 416 kts 221°
2026-04-24 13:16 22.99945 116.40135 32147 ft 416 kts 222°
2026-04-24 13:17 22.96187 116.35506 32159 ft 408 kts 242°
2026-04-24 13:17 22.94362 116.29734 32150 ft 408 kts 261°
2026-04-24 13:18 22.93743 116.23601 32145 ft 409 kts 261°
2026-04-24 13:18 22.93109 116.17472 32155 ft 409 kts 261°
2026-04-24 13:19 22.92473 116.11333 32157 ft 410 kts 261°
2026-04-24 13:19 22.91837 116.05191 32145 ft 410 kts 261°
2026-04-24 13:20 22.91201 115.99047 32145 ft 410 kts 261°
2026-04-24 13:20 22.90553 115.92892 32159 ft 410 kts 261°
2026-04-24 13:21 22.89905 115.86748 32160 ft 410 kts 261°
2026-04-24 13:21 22.89276 115.80598 32166 ft 410 kts 261°
2026-04-24 13:22 22.88669 115.74450 32155 ft 410 kts 261°
2026-04-24 13:22 22.88058 115.68294 32156 ft 411 kts 261°
2026-04-24 13:23 22.87443 115.62174 32170 ft 410 kts 261°
2026-04-24 13:23 22.86822 115.56040 32182 ft 409 kts 261°
2026-04-24 13:24 22.86203 115.49928 32187 ft 408 kts 261°
2026-04-24 13:24 22.85575 115.43819 32168 ft 408 kts 261°
2026-04-24 13:25 22.84938 115.37690 32137 ft 411 kts 261°
2026-04-24 13:25 22.84299 115.31521 32155 ft 412 kts 261°
2026-04-24 13:26 22.83663 115.25361 32189 ft 411 kts 261°
2026-04-24 13:26 22.83022 115.19217 32193 ft 409 kts 261°
2026-04-24 13:27 22.82387 115.13125 32192 ft 409 kts 261°
2026-04-24 13:27 22.81746 115.07001 32192 ft 408 kts 261°
2026-04-24 13:28 22.81108 115.00897 32199 ft 407 kts 261°
2026-04-24 13:28 22.80467 114.94812 32196 ft 405 kts 261°
2026-04-24 13:29 22.79827 114.88747 32194 ft 404 kts 261°
2026-04-24 13:29 22.79188 114.82707 32190 ft 403 kts 261°
2026-04-24 13:30 22.78542 114.76673 32186 ft 403 kts 261°
2026-04-24 13:30 22.77903 114.70647 32186 ft 402 kts 261°
2026-04-24 13:31 22.77292 114.64612 32181 ft 403 kts 261°
2026-04-24 13:31 22.76682 114.58585 32181 ft 403 kts 261°
2026-04-24 13:32 22.76062 114.52554 32177 ft 403 kts 261°
2026-04-24 13:32 22.75448 114.46565 32182 ft 403 kts 261°
2026-04-24 13:33 22.74841 114.40530 32179 ft 403 kts 261°
2026-04-24 13:33 22.74229 114.34506 32191 ft 402 kts 261°
2026-04-24 13:34 22.73605 114.28475 32165 ft 403 kts 261°
2026-04-24 13:34 22.72974 114.22436 32162 ft 404 kts 261°
2026-04-24 13:35 22.72349 114.16384 32169 ft 404 kts 261°
2026-04-24 13:35 22.71719 114.10325 32173 ft 405 kts 261°
2026-04-24 13:36 22.70547 114.04407 32188 ft 403 kts 248°
2026-04-24 13:36 22.67487 113.99342 32191 ft 407 kts 230°
2026-04-24 13:37 22.63633 113.94854 32193 ft 407 kts 230°
2026-04-24 13:37 22.59801 113.90395 32193 ft 407 kts 230°
2026-04-24 13:38 22.55952 113.85910 32195 ft 407 kts 231°
2026-04-24 13:38 22.52097 113.81418 32161 ft 407 kts 230°
2026-04-24 13:39 22.48230 113.76918 32160 ft 409 kts 230°
2026-04-24 13:39 22.44353 113.72401 32173 ft 410 kts 231°
2026-04-24 13:40 22.40466 113.67888 32177 ft 410 kts 230°
2026-04-24 13:40 22.36574 113.63379 32168 ft 410 kts 230°
2026-04-24 13:41 22.32682 113.58865 32169 ft 410 kts 230°
2026-04-24 13:41 22.28789 113.54348 32170 ft 411 kts 231°
2026-04-24 13:42 22.24902 113.49830 32137 ft 411 kts 230°
2026-04-24 13:42 22.21555 113.44889 32138 ft 407 kts 245°
2026-04-24 13:43 22.19428 113.39276 32151 ft 408 kts 249°
2026-04-24 13:43 22.17322 113.33583 32157 ft 408 kts 249°
2026-04-24 13:44 22.15218 113.27901 32172 ft 408 kts 249°
2026-04-24 13:44 22.13086 113.22222 32169 ft 408 kts 248°
2026-04-24 13:45 22.10780 113.16630 32170 ft 409 kts 246°
2026-04-24 13:45 22.08401 113.11061 32173 ft 408 kts 246°
2026-04-24 13:46 22.06050 113.05486 32170 ft 408 kts 247°
2026-04-24 13:46 22.04119 113.00857 32137 ft 408 kts 247°
2026-04-24 13:47 22.01482 112.94274 32141 ft 410 kts 248°
2026-04-24 13:47 21.99672 112.89550 32139 ft 410 kts 248°
2026-04-24 13:48 21.97483 112.83861 32150 ft 411 kts 248°
2026-04-24 13:48 21.95258 112.78184 32160 ft 412 kts 248°
2026-04-24 13:49 21.92967 112.72536 32165 ft 411 kts 248°
2026-04-24 13:49 21.90667 112.66901 32160 ft 411 kts 248°
2026-04-24 13:50 21.88396 112.61294 32169 ft 411 kts 248°
2026-04-24 13:50 21.86119 112.55651 32160 ft 411 kts 248°
2026-04-24 13:51 21.83856 112.50005 32157 ft 410 kts 248°
2026-04-24 13:51 21.81621 112.44345 32132 ft 411 kts 248°
2026-04-24 13:52 21.79375 112.38671 32125 ft 413 kts 248°
2026-04-24 13:52 21.77115 112.32970 32123 ft 414 kts 248°
2026-04-24 13:53 21.74847 112.27271 32134 ft 415 kts 248°
2026-04-24 13:53 21.72570 112.21559 32130 ft 416 kts 248°
2026-04-24 13:54 21.70294 112.15843 32135 ft 416 kts 248°
2026-04-24 13:54 21.68011 112.10132 32146 ft 416 kts 249°
2026-04-24 13:55 21.65724 112.04427 32150 ft 416 kts 249°
2026-04-24 13:55 21.63433 111.98716 32150 ft 416 kts 249°
2026-04-24 13:56 21.61158 111.93043 32144 ft 416 kts 249°
2026-04-24 13:56 21.58865 111.87333 32113 ft 417 kts 249°
2026-04-24 13:57 21.56220 111.81778 32116 ft 422 kts 237°
2026-04-24 13:57 21.52442 111.76917 32127 ft 425 kts 233°
2026-04-24 13:58 21.48604 111.72094 32122 ft 425 kts 233°
2026-04-24 13:58 21.44760 111.67267 32125 ft 425 kts 233°
2026-04-24 13:59 21.40918 111.62436 32130 ft 426 kts 233°
2026-04-24 13:59 21.37070 111.57601 32129 ft 426 kts 233°
2026-04-24 14:00 21.33216 111.52767 32113 ft 426 kts 233°
2026-04-24 14:00 21.29352 111.47928 32119 ft 427 kts 233°
2026-04-24 14:01 21.25488 111.43084 32120 ft 427 kts 233°
2026-04-24 14:01 21.21624 111.38242 32123 ft 427 kts 233°
2026-04-24 14:02 21.17777 111.33438 32126 ft 428 kts 233°
2026-04-24 14:02 21.13901 111.28604 32128 ft 428 kts 233°
2026-04-24 14:03 21.10027 111.23771 32127 ft 428 kts 233°
2026-04-24 14:03 21.06152 111.18935 32100 ft 428 kts 233°
2026-04-24 14:04 21.02268 111.14087 32104 ft 429 kts 233°
2026-04-24 14:04 20.98371 111.09240 32113 ft 429 kts 233°
2026-04-24 14:05 20.93869 111.04968 32116 ft 441 kts 217°
2026-04-24 14:05 20.88275 111.02131 32116 ft 447 kts 210°
2026-04-24 14:06 20.82592 110.99442 32111 ft 447 kts 210°
2026-04-24 14:06 20.76904 110.96746 32112 ft 447 kts 210°
2026-04-24 14:07 20.71216 110.94048 32111 ft 447 kts 210°
2026-04-24 14:07 20.65559 110.91367 32112 ft 447 kts 210°
2026-04-24 14:08 20.59870 110.88673 32111 ft 447 kts 210°
2026-04-24 14:08 20.54174 110.85978 32104 ft 447 kts 210°
2026-04-24 14:09 20.48205 110.83917 32076 ft 460 kts 194°
2026-04-24 14:09 20.41772 110.83359 32080 ft 465 kts 190°
2026-04-24 14:10 20.35316 110.82868 32080 ft 465 kts 190°
2026-04-24 14:10 20.28855 110.82357 32084 ft 466 kts 190°
2026-04-24 14:11 20.22383 110.81845 32084 ft 466 kts 190°
2026-04-24 14:12 20.12701 110.81098 32075 ft 467 kts 189°
2026-04-24 14:12 20.06220 110.80607 32076 ft 467 kts 190°
2026-04-24 14:13 19.99732 110.80090 32077 ft 467 kts 190°
2026-04-24 14:13 19.93335 110.79192 32075 ft 456 kts 204°
2026-04-24 14:13 19.90513 110.77773 32078 ft 444 kts 219°
2026-04-24 14:14 19.88181 110.75675 32074 ft 435 kts 232°
2026-04-24 14:14 19.86475 110.73099 31826 ft 419 kts 246°
2026-04-24 14:14 19.85085 110.67301 31350 ft 402 kts 269°
2026-04-24 14:15 19.85060 110.64335 31117 ft 401 kts 270°
2026-04-24 14:15 19.85033 110.61381 30884 ft 399 kts 270°
2026-04-24 14:15 19.85003 110.58432 30648 ft 398 kts 270°
2026-04-24 14:15 19.84976 110.55500 30418 ft 396 kts 270°
2026-04-24 14:16 19.84958 110.52583 30190 ft 395 kts 270°
2026-04-24 14:16 19.84949 110.49669 29951 ft 393 kts 270°
2026-04-24 14:16 19.84944 110.46772 29687 ft 392 kts 270°
2026-04-24 14:17 19.84937 110.40969 28443 ft 389 kts 270°
2026-04-24 14:17 19.84934 110.38143 27928 ft 387 kts 270°
2026-04-24 14:17 19.84924 110.32465 26889 ft 383 kts 269°
2026-04-24 14:18 19.84918 110.29643 26393 ft 381 kts 269°
2026-04-24 14:18 19.84908 110.26827 25916 ft 380 kts 269°
2026-04-24 14:18 19.84895 110.24027 25460 ft 379 kts 269°
2026-04-24 14:18 19.84882 110.21232 24974 ft 375 kts 269°
2026-04-24 14:19 19.84873 110.19365 24484 ft 373 kts 269°
2026-04-24 14:19 19.84855 110.15726 23450 ft 371 kts 268°
2026-04-24 14:19 19.84843 110.12990 22583 ft 368 kts 269°
2026-04-24 14:19 19.84833 110.10295 21837 ft 362 kts 269°
2026-04-24 14:20 19.84823 110.07642 21059 ft 357 kts 269°
2026-04-24 14:20 19.84815 110.05026 20288 ft 352 kts 269°
2026-04-24 14:20 19.84805 110.02439 19508 ft 348 kts 269°
2026-04-24 14:20 19.84790 109.99881 18753 ft 344 kts 269°
2026-04-24 14:21 19.84774 109.97352 17963 ft 341 kts 269°
2026-04-24 14:21 19.84756 109.94850 17203 ft 335 kts 269°
2026-04-24 14:21 19.84742 109.92454 17046 ft 313 kts 270°
2026-04-24 14:21 19.84730 109.90217 16915 ft 293 kts 270°
2026-04-24 14:22 19.84720 109.88124 16793 ft 274 kts 270°
2026-04-24 14:22 19.84711 109.86150 16517 ft 262 kts 270°
2026-04-24 14:22 19.86126 109.82876 15733 ft 258 kts 328°
2026-04-24 14:23 19.87859 109.82386 15236 ft 264 kts 354°
2026-04-24 14:23 19.89704 109.82334 14713 ft 266 kts 356°
2026-04-24 14:23 19.91554 109.82342 14262 ft 265 kts 358°
2026-04-24 14:23 19.93367 109.82642 13814 ft 267 kts 25°
2026-04-24 14:24 19.94738 109.83932 13336 ft 268 kts 60°
2026-04-24 14:24 19.95213 109.85824 12828 ft 267 kts 86°
2026-04-24 14:24 19.95277 109.87804 12293 ft 269 kts 90°
2026-04-24 14:24 19.95260 109.89788 11822 ft 268 kts 90°
2026-04-24 14:25 19.95236 109.91119 11541 ft 266 kts 91°
2026-04-24 14:25 19.95197 109.93699 10981 ft 262 kts 90°
2026-04-24 14:25 19.95181 109.95628 10549 ft 260 kts 89°
2026-04-24 14:25 19.95177 109.97540 10131 ft 258 kts 90°
2026-04-24 14:26 19.95181 109.99434 9736 ft 254 kts 89°
2026-04-24 14:26 19.95187 110.01302 9241 ft 253 kts 89°
2026-04-24 14:26 19.95196 110.03194 8615 ft 258 kts 88°
2026-04-24 14:26 19.95205 110.05118 8014 ft 263 kts 88°
2026-04-24 14:27 19.95208 110.07074 7408 ft 266 kts 89°
2026-04-24 14:27 19.95216 110.09024 6979 ft 262 kts 89°
2026-04-24 14:27 19.95227 110.10970 6337 ft 267 kts 88°
2026-04-24 14:27 19.95238 110.12965 5713 ft 273 kts 89°
2026-04-24 14:28 19.95248 110.14975 5326 ft 276 kts 89°
2026-04-24 14:28 19.95257 110.16979 4972 ft 266 kts 88°
2026-04-24 14:28 19.95266 110.18910 4636 ft 256 kts 88°
2026-04-24 14:28 19.95275 110.20765 4304 ft 246 kts 88°
2026-04-24 14:29 19.95283 110.22549 3982 ft 236 kts 87°
2026-04-24 14:29 19.95291 110.24261 3682 ft 227 kts 88°
2026-04-24 14:29 19.95298 110.25897 3407 ft 217 kts 89°
2026-04-24 14:29 19.95305 110.27470 3122 ft 208 kts 89°
2026-04-24 14:30 19.95309 110.28475 2947 ft 202 kts 89°
2026-04-24 14:30 19.95317 110.30431 2639 ft 193 kts 89°
2026-04-24 14:30 19.95323 110.31850 2368 ft 191 kts 90°
2026-04-24 14:30 19.95329 110.33216 2107 ft 179 kts 89°
2026-04-24 14:31 19.95333 110.34493 1882 ft 167 kts 89°
2026-04-24 14:31 19.95338 110.35693 1667 ft 157 kts 88°
2026-04-24 14:31 19.95342 110.36816 1488 ft 149 kts 87°
2026-04-24 14:31 19.95347 110.37954 1274 ft 148 kts 89°
2026-04-24 14:32 19.95350 110.39005 1089 ft 139 kts 88°
2026-04-24 14:32 19.95354 110.40023 922 ft 137 kts 88°
2026-04-24 14:32 19.95358 110.41048 759 ft 141 kts 88°
2026-04-24 14:32 19.95368 110.42077 620 ft 139 kts 85°
2026-04-24 14:33 19.95372 110.43087 396 ft 138 kts 88°
2026-04-24 14:33 19.95367 110.44111 240 ft 139 kts 88°
2026-04-24 14:33 19.95369 110.45144 64 ft 137 kts 89°
2026-04-24 14:33 19.95372 110.46012 58 ft 94 kts 90°
2026-04-24 14:34 19.95378 110.46528 57 ft 47 kts 89°
2026-04-24 14:34 19.95380 110.46864 58 ft 44 kts 91°
2026-04-24 14:34 19.95305 110.47088 58 ft 25 kts 119°
2026-04-24 14:34 19.95211 110.47116 54 ft 16 kts 238°
2026-04-24 14:35 19.95206 110.46986 60 ft 19 kts 272°
2026-04-24 14:35 19.95206 110.46837 59 ft 21 kts 268°
2026-04-24 14:35 19.95206 110.46668 58 ft 24 kts 271°
2026-04-24 14:35 19.95208 110.46479 57 ft 27 kts 270°
2026-04-24 14:36 19.95210 110.46344 57 ft 25 kts 270°
2026-04-24 14:36 19.95167 110.46270 58 ft 12 kts 179°
2026-04-24 14:36 19.95140 110.46270 55 ft 0 kts 179°
2026-04-24 14:37 19.95136 110.46270 54 ft 2 kts 179°
2026-04-24 14:37 19.95119 110.46270 56 ft 4 kts 179°
2026-04-24 14:37 19.95088 110.46271 56 ft 0 kts 179°
2026-04-24 14:38 19.95089 110.46271 56 ft 0 kts 179°
2026-04-24 14:40 19.95085 110.46270 56 ft 1 kts 187°
2026-04-24 14:41 19.95064 110.46211 55 ft 13 kts 270°
2026-04-24 14:41 19.95064 110.46162 58 ft 0 kts 270°
2026-04-24 14:41 19.95064 110.46160 58 ft 1 kts 270°
2026-04-24 14:41 19.95057 110.46137 58 ft 5 kts 237°
2026-04-24 14:42 19.95020 110.46115 51 ft 7 kts 203°
2026-04-24 14:42 19.95001 110.46107 58 ft 0 kts 204°